Weather in Newcastle

South Africa     27°45′17″S   29°55′44″E
temp.,
°C
wind,
m/s
gust,
m/s
humid.,
%
clouds,
%
prec.,
mm/h
press.,
hPa
HPBL,
m
6 may, thu
thu623:00+12nw1157100 0.0 102134
02:00+11wnw1161100 0.0 102134
05:00+10nw11675 0.0 102126
08:00+13w11570 0.0 1022141
11:00+21e11370 0.0 1020571
14:00+23ese12282 0.0 10171651
17:00+19e36405 0.0 1018169
20:00+14nw016468 0.0 102261
7 may, fri
fri723:00+13nw127131 0.0 102364
02:00+11ene00815 0.0 102326
05:00+10nw11885 0.0 102425
08:00+13nnw1273100 0.0 1024184
11:00+22nnw143891 0.0 10211192
14:00+24nw142696 0.0 10162904
17:00+19sse224389 0.0 101862
20:00+15nnw125339 0.0 102041
8 may, sat
sat823:00+13nnw115874 0.0 102143
02:00+12wnw116351 0.0 102042
05:00+11nw126718 0.0 102052
08:00+14nnw13560 0.0 1020152
11:00+23wnw46311 0.1 10172494
14:00+23sw362759 0.1 10141578
17:00+17nne22532 0.3 101556
20:00+13nw22533 0.3 101852
9 may, sun
sun923:00+11s015545 0.0 101916
02:00+10ssw11605 0.0 101922
05:00+8wsw11670 0.0 102031
08:00+10s237110 0.0 1022261
11:00+16ese22550 0.1 1020980
14:00+18ese434336 0.1 10181928
17:00+15se24580 0.0 1020284
20:00+11wsw11750 0.0 102329
10 may, mon
mon1023:00+10wnw11810 0.0 102442
02:00+9nnw12850 0.0 102450
05:00+8nw11860 0.0 102438
08:00+11nnw01710 0.0 1026162
11:00+19ese11430 0.0 1024712
14:00+21ene22330 0.0 10201116
17:00+18ese23420 0.0 102179
20:00+13nw12550 0.0 102338